| time (UTC) | temp C | wind direction | speed KPH | gust KPH | rain 1hr cm | rain 24hr cm | rain mn cm | humidity % | barometer mb |
| 20260507104816 | 16 | 130 | 22.5 | 0.0 | 0.00 | 0.00 | 0.00 | 72 | 1018.0 |
| 20260507103317 | 16 | 130 | 22.5 | 0.0 | 0.00 | 0.00 | 0.00 | 72 | 1018.0 |
| 20260507101817 | 17 | 130 | 24.1 | 0.0 | 0.00 | 0.00 | 0.00 | 68 | 1018.0 |
| 20260507100317 | 17 | 130 | 24.1 | 0.0 | 0.00 | 0.00 | 0.00 | 68 | 1018.0 |
| 20260507094817 | 17 | 130 | 24.1 | 0.0 | 0.00 | 0.00 | 0.00 | 68 | 1018.0 |
| 20260507093317 | 17 | 130 | 24.1 | 0.0 | 0.00 | 0.00 | 0.00 | 68 | 1018.0 |
| 20260507091818 | 16 | 130 | 22.5 | 0.0 | 0.00 | 0.00 | 0.00 | 72 | 1018.0 |
| 20260507090317 | 16 | 130 | 22.5 | 0.0 | 0.00 | 0.00 | 0.00 | 72 | 1018.0 |
| 20260507084817 | 16 | 120 | 20.9 | 0.0 | 0.00 | 0.00 | 0.00 | 68 | 1018.0 |
| 20260507083317 | 16 | 120 | 20.9 | 0.0 | 0.00 | 0.00 | 0.00 | 68 | 1018.0 |
| 20260507081817 | 17 | 140 | 20.9 | 0.0 | 0.00 | 0.00 | 0.00 | 64 | 1018.0 |
| 20260507080318 | 17 | 140 | 20.9 | 0.0 | 0.00 | 0.00 | 0.00 | 64 | 1018.0 |
| 20260507074818 | 16 | 150 | 14.5 | 0.0 | 0.00 | 0.00 | 0.00 | 72 | 1018.0 |
| 20260507073317 | 16 | 150 | 14.5 | 0.0 | 0.00 | 0.00 | 0.00 | 72 | 1018.0 |
| 20260507071817 | 15 | 160 | 16.1 | 0.0 | 0.00 | 0.00 | 0.00 | 77 | 1018.0 |
| 20260507070317 | 15 | 160 | 16.1 | 0.0 | 0.00 | 0.00 | 0.00 | 77 | 1018.0 |
| 20260507064817 | 13 | 160 | 17.7 | 0.0 | 0.00 | 0.00 | 0.00 | 82 | 1018.0 |
| 20260507063317 | 13 | 160 | 17.7 | 0.0 | 0.00 | 0.00 | 0.00 | 82 | 1018.0 |
| 20260507060317 | 12 | 160 | 14.5 | 0.0 | 0.00 | 0.00 | 0.00 | 94 | 1018.0 |
| 20260507054817 | 12 | 160 | 20.9 | 0.0 | 0.00 | 0.00 | 0.00 | 94 | 1018.0 |
| 20260507053324 | 12 | 160 | 20.9 | 0.0 | 0.00 | 0.00 | 0.00 | 94 | 1018.0 |
| 20260507051817 | 11 | 170 | 12.9 | 0.0 | 0.00 | 0.00 | 0.00 | 94 | 1018.0 |
| 20260507050317 | 11 | 170 | 12.9 | 0.0 | 0.00 | 0.00 | 0.00 | 94 | 1018.0 |
| 20260507043317 | 8 | 160 | 9.7 | 0.0 | 0.00 | 0.00 | 0.00 | 100 | 1017.0 |
| 20260507041817 | 7 | 180 | 9.7 | 0.0 | 0.00 | 0.00 | 0.00 | 100 | 1017.0 |
| 20260507040317 | 7 | 180 | 9.7 | 0.0 | 0.00 | 0.00 | 0.00 | 100 | 1017.0 |
| 20260507033316 | 3 | 210 | 4.8 | 0.0 | 0.00 | 0.00 | 0.00 | 100 | 1017.0 |
| 20260507031817 | 5 | 190 | 8.0 | 0.0 | 0.00 | 0.00 | 0.00 | 100 | 1017.0 |
| 20260507030317 | 5 | 190 | 8.0 | 0.0 | 0.00 | 0.00 | 0.00 | 100 | 1017.0 |
| 20260507024817 | 5 | 160 | 8.0 | 0.0 | 0.00 | 0.00 | 0.00 | 100 | 1017.0 |
| 20260507023317 | 5 | 160 | 8.0 | 0.0 | 0.00 | 0.00 | 0.00 | 100 | 1017.0 |
| 20260507021817 | 5 | 170 | 9.7 | 0.0 | 0.00 | 0.00 | 0.00 | 93 | 1017.0 |
| 20260507020317 | 5 | 170 | 9.7 | 0.0 | 0.00 | 0.00 | 0.00 | 93 | 1017.0 |
| 20260507014817 | 3 | 160 | 11.3 | 0.0 | 0.00 | 0.00 | 0.00 | 100 | 1017.0 |
| 20260507013316 | 3 | 160 | 11.3 | 0.0 | 0.00 | 0.00 | 0.00 | 100 | 1017.0 |
| 20260507011817 | 5 | 160 | 9.7 | 0.0 | 0.00 | 0.00 | 0.00 | 100 | 1017.0 |
| 20260507010317 | 5 | 160 | 9.7 | 0.0 | 0.00 | 0.00 | 0.00 | 100 | 1017.0 |
| 20260507004817 | 6 | 170 | 9.7 | 0.0 | 0.00 | 0.00 | 0.00 | 100 | 1017.0 |
| 20260507003317 | 6 | 170 | 9.7 | 0.0 | 0.00 | 0.00 | 0.00 | 100 | 1017.0 |
| 20260507001817 | 6 | 170 | 11.3 | 0.0 | 0.00 | 0.00 | 0.00 | 100 | 1017.0 |
| 20260507000317 | 6 | 170 | 11.3 | 0.0 | 0.00 | 0.00 | 0.00 | 100 | 1017.0 |
| 20260506234817 | 6 | 160 | 11.3 | 0.0 | 0.00 | 0.00 | 0.00 | 100 | 1017.0 |
| 20260506233317 | 6 | 160 | 11.3 | 0.0 | 0.00 | 0.00 | 0.00 | 100 | 1017.0 |
| 20260506231817 | 7 | 170 | 11.3 | 0.0 | 0.00 | 0.00 | 0.00 | 100 | 1017.0 |
| 20260506230317 | 7 | 170 | 11.3 | 0.0 | 0.00 | 0.00 | 0.00 | 100 | 1017.0 |
| 20260506223317 | 6 | 190 | 11.3 | 0.0 | 0.00 | 0.00 | 0.00 | 100 | 1017.0 |
| 20260506221817 | 7 | 180 | 12.9 | 0.0 | 0.00 | 0.00 | 0.00 | 93 | 1017.0 |
| 20260506220316 | 7 | 180 | 12.9 | 0.0 | 0.00 | 0.00 | 0.00 | 93 | 1017.0 |
| 20260506214833 | 6 | 170 | 9.7 | 0.0 | 0.00 | 0.00 | 0.00 | 100 | 1017.0 |
| 20260506213317 | 6 | 170 | 9.7 | 0.0 | 0.00 | 0.00 | 0.00 | 100 | 1017.0 |
| 20260506210316 | 6 | 160 | 12.9 | 0.0 | 0.00 | 0.00 | 0.00 | 100 | 1017.0 |
| 20260506204818 | 6 | 150 | 4.8 | 0.0 | 0.00 | 0.00 | 0.00 | 93 | 1017.0 |
| 20260506203317 | 6 | 150 | 4.8 | 0.0 | 0.00 | 0.00 | 0.00 | 93 | 1017.0 |
| 20260506200317 | 7 | 130 | 9.7 | 0.0 | 0.00 | 0.00 | 0.00 | 100 | 1017.0 |
| 20260506194836 | 7 | 140 | 11.3 | 0.0 | 0.00 | 0.00 | 0.00 | 100 | 1017.0 |
| 20260506193341 | 7 | 140 | 11.3 | 0.0 | 0.00 | 0.00 | 0.00 | 100 | 1017.0 |
| 20260506191818 | 7 | 140 | 8.0 | 0.0 | 0.00 | 0.00 | 0.00 | 100 | 1017.0 |
| 20260506190317 | 7 | 140 | 8.0 | 0.0 | 0.00 | 0.00 | 0.00 | 100 | 1017.0 |
| 20260506184822 | 7 | 140 | 4.8 | 0.0 | 0.00 | 0.00 | 0.00 | 93 | 1017.0 |
| 20260506183317 | 7 | 140 | 4.8 | 0.0 | 0.00 | 0.00 | 0.00 | 93 | 1017.0 |
| 20260506181817 | 8 | 130 | 8.0 | 0.0 | 0.00 | 0.00 | 0.00 | 94 | 1016.0 |
| 20260506180317 | 8 | 130 | 8.0 | 0.0 | 0.00 | 0.00 | 0.00 | 94 | 1016.0 |
| 20260506174817 | 10 | 110 | 8.0 | 0.0 | 0.00 | 0.00 | 0.00 | 94 | 1016.0 |
| 20260506173317 | 10 | 110 | 8.0 | 0.0 | 0.00 | 0.00 | 0.00 | 94 | 1016.0 |
| 20260506171817 | 12 | 120 | 12.9 | 0.0 | 0.00 | 0.00 | 0.00 | 88 | 1016.0 |
| 20260506170317 | 12 | 120 | 12.9 | 0.0 | 0.00 | 0.00 | 0.00 | 88 | 1016.0 |
| 20260506164817 | 12 | 130 | 12.9 | 0.0 | 0.00 | 0.00 | 0.00 | 82 | 1016.0 |
| 20260506163317 | 12 | 130 | 12.9 | 0.0 | 0.00 | 0.00 | 0.00 | 82 | 1016.0 |
| 20260506161817 | 15 | 120 | 14.5 | 0.0 | 0.00 | 0.00 | 0.00 | 72 | 1016.0 |
| 20260506160317 | 15 | 120 | 14.5 | 0.0 | 0.00 | 0.00 | 0.00 | 72 | 1016.0 |
| 20260506154818 | 16 | 120 | 14.5 | 0.0 | 0.00 | 0.00 | 0.00 | 68 | 1016.0 |
| 20260506153317 | 16 | 120 | 14.5 | 0.0 | 0.00 | 0.00 | 0.00 | 68 | 1016.0 |
| 20260506151817 | 17 | 130 | 14.5 | 0.0 | 0.00 | 0.00 | 0.00 | 59 | 1016.0 |
| 20260506150323 | 17 | 130 | 14.5 | 0.0 | 0.00 | 0.00 | 0.00 | 59 | 1016.0 |
| 20260506144817 | 17 | 120 | 16.1 | 0.0 | 0.00 | 0.00 | 0.00 | 59 | 1016.0 |
| 20260506143329 | 17 | 120 | 16.1 | 0.0 | 0.00 | 0.00 | 0.00 | 59 | 1016.0 |
| 20260506141817 | 17 | 130 | 16.1 | 0.0 | 0.00 | 0.00 | 0.00 | 59 | 1016.0 |
| 20260506140432 | 17 | 130 | 16.1 | 0.0 | 0.00 | 0.00 | 0.00 | 59 | 1016.0 |
| 20260506134842 | 17 | 130 | 16.1 | 0.0 | 0.00 | 0.00 | 0.00 | 56 | 1016.0 |
| 20260506133317 | 17 | 130 | 16.1 | 0.0 | 0.00 | 0.00 | 0.00 | 56 | 1016.0 |
| 20260506131817 | 18 | 130 | 14.5 | 0.0 | 0.00 | 0.00 | 0.00 | 56 | 1016.0 |
| 20260506130326 | 18 | 130 | 14.5 | 0.0 | 0.00 | 0.00 | 0.00 | 56 | 1016.0 |
| 20260506124817 | 18 | 130 | 14.5 | 0.0 | 0.00 | 0.00 | 0.00 | 52 | 1016.0 |
| 20260506123317 | 18 | 130 | 14.5 | 0.0 | 0.00 | 0.00 | 0.00 | 52 | 1016.0 |
| 20260506121817 | 18 | 130 | 16.1 | 0.0 | 0.00 | 0.00 | 0.00 | 52 | 1017.0 |
| 20260506120317 | 18 | 130 | 16.1 | 0.0 | 0.00 | 0.00 | 0.00 | 52 | 1017.0 |
| 20260506114817 | 18 | 120 | 16.1 | 0.0 | 0.00 | 0.00 | 0.00 | 52 | 1017.0 |
| 20260506113317 | 18 | 120 | 16.1 | 0.0 | 0.00 | 0.00 | 0.00 | 52 | 1017.0 |
| 20260506111817 | 18 | 140 | 14.5 | 0.0 | 0.00 | 0.00 | 0.00 | 56 | 1017.0 |
| 20260506110317 | 18 | 140 | 14.5 | 0.0 | 0.00 | 0.00 | 0.00 | 56 | 1017.0 |